Location: Norton
(51.3000°N, 0.8167°E)
Time: 12:46:17
(UTC+00:00)

Cosmos 1536 - Pass Details

Date: 03 March 2021
Orbit: 541 x 557 km, 82.5° (Epoch: 17 April)

Event Time Altitude Azimuth Distance (km) Brightness Sun altitude
Exits shadow 19:46:11 23° 33° (NNE) 1,186 4.3 -20.2°
Drops below altitude 10° 19:47:54 10° 21° (NNE) 1,824 5.4 -20.4°
Sets 19:50:08 0° 16° (NNE) 2,720 6.4 -20.8°
